MM0ZFG-5 Weather Reports


time (UTC)temp
C
wind
direction
speed
KPH
gust
KPH
rain 1hr
cm
rain 24hr
cm
rain mn
cm
humidity
%
barometer
mb
20260506094525 8 114 3.2 9.7 0.00 0.00 0.00 60 1013.3
20260506093603 8 113 3.2 14.5 0.00 0.00 0.00 60 1013.1
20260506092703 8 108 4.8 12.9 0.00 0.00 0.00 61 1013.4
20260506091803 8 92 4.8 12.9 0.00 0.00 0.00 59 1013.2
20260506090925 8 108 3.2 12.9 0.00 0.00 0.00 61 1013.6
20260506090004 7 143 3.2 12.9 0.00 0.00 0.00 64 1013.6
20260506085404 7 117 3.2 11.3 0.00 0.00 0.00 64 1013.6
20260506084504 7 174 3.2 6.4 0.00 0.00 0.00 65 1013.7
20260506083605 6 154 3.2 9.7 0.00 0.00 0.00 66 1013.7
20260506082704 6 87 3.2 9.7 0.00 0.00 0.00 67 1013.8
20260506081805 6 73 3.2 9.7 0.00 0.00 0.00 68 1013.6
20260506080905 6 68 3.2 14.5 0.00 0.00 0.00 66 1013.6
20260506072703 6 82 3.2 11.3 0.00 0.00 0.00 69 1013.7
20260506071804 6 67 1.6 11.3 0.00 0.00 0.00 71 1013.5
20260506070905 6 33 3.2 11.3 0.00 0.00 0.00 69 1013.6
20260506061803 5 42 3.2 9.7 0.00 0.00 0.00 72 1013.7
20260506060904 5 32 1.6 6.4 0.00 0.00 0.00 72 1013.5
20260506050904 5 337 1.6 4.8 0.00 0.00 0.00 75 1013.6
20260506044503 5 338 1.6 4.8 0.00 0.00 0.00 75 1013.5
20260506043604 5 333 1.6 4.8 0.00 0.00 0.00 75 1013.6
20260506042704 5 335 1.6 4.8 0.00 0.00 0.00 74 1013.6
20260506041804 5 346 0.0 3.2 0.00 0.00 0.00 74 1013.8
20260506040904 5 345 1.6 3.2 0.00 0.00 0.00 73 1013.8
20260506040024 5 344 0.0 3.2 0.00 0.00 0.00 73 1013.7
20260506035404 5 342 0.0 3.2 0.00 0.00 0.00 73 1013.6
20260506034504 5 348 1.6 6.4 0.00 0.00 0.00 73 1013.8
20260506033624 5 346 1.6 4.8 0.00 0.00 0.00 72 1013.7
20260506032705 5 337 1.6 6.4 0.00 0.00 0.00 72 1013.7
20260506031804 5 344 3.2 11.3 0.00 0.00 0.00 72 1013.6
20260506030903 5 27 3.2 9.7 0.00 0.00 0.00 72 1013.9
20260506030004 5 4 3.2 9.7 0.00 0.00 0.00 72 1014.0
20260506025403 5 350 1.6 4.8 0.00 0.00 0.00 72 1013.9
20260506024503 5 360 1.6 4.8 0.00 0.00 0.00 72 1013.9
20260506023603 5 1 1.6 6.4 0.00 0.00 0.00 72 1013.9
20260506022703 5 342 1.6 9.7 0.00 0.00 0.00 72 1013.9
20260506021804 5 351 1.6 4.8 0.00 0.00 0.00 73 1013.9
20260506020903 5 333 1.6 6.4 0.00 0.00 0.00 72 1013.8
20260506020004 5 339 1.6 4.8 0.00 0.00 0.00 72 1013.9
20260506015404 5 338 1.6 4.8 0.00 0.00 0.00 72 1013.9
20260506014503 5 352 1.6 6.4 0.00 0.00 0.00 72 1013.9
20260506013603 6 14 3.2 9.7 0.00 0.00 0.00 71 1014.1
20260506012703 6 1 3.2 6.4 0.00 0.00 0.00 71 1014.2
20260506011804 6 10 3.2 16.1 0.00 0.00 0.00 71 1014.0
20260506010904 6 11 3.2 16.1 0.00 0.00 0.00 72 1014.0
20260506010004 6 9 1.6 4.8 0.00 0.00 0.00 73 1014.1
20260506005403 6 359 1.6 4.8 0.00 0.00 0.00 73 1014.3
20260506004505 6 8 1.6 4.8 0.00 0.00 0.00 73 1014.4
20260506003626 6 7 3.2 6.4 0.00 0.00 0.00 73 1014.3
20260506002703 6 346 1.6 6.4 0.00 0.00 0.00 73 1014.4
20260506001803 6 336 1.6 6.4 0.00 0.00 0.00 73 1014.3
20260506000905 6 334 1.6 4.8 0.00 0.00 0.00 73 1014.5
20260506000004 6 358 3.2 4.8 0.00 0.00 0.00 73 1014.3
20260505235403 6 342 1.6 4.8 0.00 0.00 0.00 73 1014.4
20260505234503 6 9 1.6 4.8 0.00 0.00 0.00 73 1014.4
20260505233603 6 342 1.6 4.8 0.00 0.00 0.00 73 1014.2
20260505232703 6 354 1.6 9.7 0.00 0.00 0.00 73 1014.2
20260505231805 6 354 1.6 4.8 0.00 0.00 0.00 72 1014.2
20260505230924 6 344 0.0 3.2 0.00 0.00 0.00 72 1014.3
20260505230003 6 343 1.6 4.8 0.00 0.00 0.00 71 1014.3
20260505225405 6 343 1.6 4.8 0.00 0.00 0.00 70 1014.6
20260505224503 6 345 1.6 6.4 0.00 0.00 0.00 69 1014.7
20260505223603 6 353 3.2 14.5 0.00 0.00 0.00 69 1014.6
20260505222703 6 5 3.2 11.3 0.00 0.00 0.00 69 1014.6
20260505221803 6 348 1.6 6.4 0.00 0.00 0.00 69 1014.5
20260505220903 6 3 3.2 11.3 0.00 0.00 0.00 69 1014.5
20260505220004 6 26 4.8 11.3 0.00 0.00 0.00 69 1014.6
20260505215403 6 11 3.2 11.3 0.00 0.00 0.00 69 1014.7
20260505214525 6 355 1.6 6.4 0.00 0.00 0.00 69 1014.5
20260505213627 6 11 1.6 9.7 0.00 0.00 0.00 69 1014.4
20260505212724 6 19 3.2 9.7 0.00 0.00 0.00 69 1014.5
20260505211824 6 359 3.2 11.3 0.00 0.00 0.00 69 1014.2
20260505210903 6 34 4.8 12.9 0.00 0.00 0.00 69 1014.3
20260505210004 7 35 3.2 12.9 0.00 0.00 0.00 70 1014.2
20260505205425 7 27 3.2 12.9 0.00 0.00 0.00 70 1014.3
20260505204505 7 55 4.8 12.9 0.00 0.00 0.00 69 1014.1
20260505203603 7 55 4.8 20.9 0.00 0.00 0.00 68 1014.2
20260505202704 7 2 3.2 14.5 0.00 0.00 0.00 68 1014.1
20260505201803 7 34 4.8 16.1 0.00 0.00 0.00 68 1014.1
20260505200926 7 36 4.8 16.1 0.00 0.00 0.00 67 1013.9
20260505200004 7 46 4.8 14.5 0.00 0.00 0.00 68 1013.9
20260505195403 7 44 4.8 17.7 0.00 0.00 0.00 68 1013.8
20260505194525 7 40 3.2 17.7 0.00 0.00 0.00 68 1013.7
20260505193624 7 58 4.8 14.5 0.00 0.00 0.00 68 1013.6
20260505192704 7 45 6.4 20.9 0.00 0.00 0.00 69 1013.7
20260505191803 7 64 4.8 16.1 0.00 0.00 0.00 69 1013.6
20260505190903 7 52 4.8 12.9 0.00 0.00 0.00 71 1013.5
20260505190005 8 35 6.4 16.1 0.00 0.00 0.00 71 1013.6
20260505185403 8 55 8.0 17.7 0.00 0.00 0.00 72 1013.3
20260505184503 8 53 6.4 17.7 0.00 0.00 0.00 70 1013.3
20260505183626 8 60 6.4 16.1 0.00 0.00 0.00 67 1013.3
20260505182704 8 51 8.0 20.9 0.00 0.00 0.00 66 1013.2
20260505181805 8 65 6.4 17.7 0.00 0.00 0.00 67 1013.2
20260505180904 9 74 6.4 16.1 0.00 0.00 0.00 67 1013.1
20260505180004 9 77 6.4 14.5 0.00 0.00 0.00 67 1013.1
20260505175404 9 67 6.4 22.5 0.00 0.00 0.00 67 1012.8
20260505174504 9 51 9.7 27.4 0.00 0.00 0.00 67 1012.8
20260505173604 9 41 6.4 24.1 0.00 0.00 0.00 68 1012.9
20260505172725 10 61 9.7 24.1 0.00 0.00 0.00 67 1012.8
20260505171804 10 59 9.7 24.1 0.00 0.00 0.00 66 1012.8
20260505170903 10 63 8.0 22.5 0.00 0.00 0.00 65 1012.9
20260505170004 10 52 6.4 14.5 0.00 0.00 0.00 63 1012.6
20260505165403 10 63 6.4 20.9 0.00 0.00 0.00 64 1012.6
20260505164503 11 88 4.8 16.1 0.00 0.00 0.00 65 1012.6
20260505163604 11 109 4.8 16.1 0.00 0.00 0.00 64 1012.6
20260505162725 11 102 4.8 16.1 0.00 0.00 0.00 63 1012.5
20260505161804 12 152 4.8 12.9 0.00 0.00 0.00 62 1012.4
20260505160903 12 139 4.8 14.5 0.00 0.00 0.00 63 1012.3
20260505152703 12 111 6.4 20.9 0.00 0.00 0.00 60 1012.4
20260505151804 13 75 8.0 20.9 0.00 0.00 0.00 57 1012.3
20260505150904 13 82 8.0 17.7 0.00 0.00 0.00 55 1012.3
20260505124524 13 199 1.6 4.8 0.00 0.00 0.00 50 1012.3
20260505123604 13 203 3.2 4.8 0.00 0.00 0.00 51 1012.2
20260505122703 12 205 3.2 6.4 0.00 0.00 0.00 53 1012.2
20260505121803 12 214 4.8 6.4 0.00 0.00 0.00 54 1012.2
20260505120903 12 228 4.8 6.4 0.00 0.00 0.00 54 1012.2
20260505120024 12 236 4.8 6.4 0.00 0.00 0.00 54 1012.5
20260505115403 12 184 3.2 4.8 0.00 0.00 0.00 54 1012.3
20260505114526 12 192 3.2 6.4 0.00 0.00 0.00 54 1012.3
20260505113624 13 188 3.2 9.7 0.00 0.00 0.00 55 1012.4
20260505112703 12 198 4.8 11.3 0.00 0.00 0.00 57 1012.4
20260505111803 11 196 1.6 4.8 0.00 0.00 0.00 56 1012.4
20260505110925 11 211 1.6 4.8 0.00 0.00 0.00 53 1012.5
20260505101803 10 337 3.2 11.3 0.00 0.00 0.00 60 1012.6
20260505100903 9 337 4.8 11.3 0.00 0.00 0.00 64 1012.3
20260505100004 9 311 6.4 16.1 0.00 0.00 0.00 64 1012.3
20260505095424 9 299 6.4 16.1 0.00 0.00 0.00 64 1012.1